Location: Hemaruka
(51.7801°N, 111.0917°W)
Time: 23:48:51
(UTC+00:00)

MOZHAYETS 4 - Pass Details

Date: 14 December 2023
Orbit: 654 x 672 km, 98.3° (Epoch: 03 March)

Event Time Altitude Azimuth Distance (km) Brightness Sun altitude
Rises 01:28:13 0° 1° (N) 3,039 11.0 -19.4°
Reaches altitude 10° 01:31:38 10° 335° (NNW) 2,120 10.4 -20.0°
Maximum altitude 01:33:40 13° 308° (NW) 1,926 10.6 -20.3°
Drops below altitude 10° 01:35:42 10° 282° (WNW) 2,113 11.2 -20.6°
Sets 01:39:06 0° 255° (WSW) 3,021 12.7 -21.1°
